User: anonymous   Login
Location: Caltech
(34.1382°N, 118.1253°W)
Time: 19:41:30
(UTC-07:00)
Language:

Sapphire - Orbit

View from above orbital plane
View from above orbital plane
View from above satellite
View from above satellite

Ground track
Ground track

The orbit data is extracted from the following two-line orbital elements,

1 26932U 01043D   17203.88034912 -.00000056 +00000-0 +10467-4 0  9992
2 26932 067.0568 001.4872 0009121 263.5807 096.4256 14.30253550825478
Epoch (UTC): 22 July 2017 21:07:42
Eccentricity: 0.0009121
inclination: 67.0568°
perigee height: 784 km
apogee height: 797 km
right ascension of ascending node: 1.4872°
argument of perigee: 263.5807°
revolutions per day: 14.30253550
mean anomaly at epoch: 96.4256°
orbit number at epoch: 82547

The dashed part of the orbit path shows where the satellite is in the earth's shadow,  

DLR